NOAA 16 DEB, 41229

Orbit data source: Space-Track

NOAA 16 DEB, 41229 is space debris in SSO originally from a launch on Thu, 21 Sep 2000 UTC launched from the Air Force Western Test Range (AFWTR). Debris objects in space refer to the collection of defunct objects orbiting the Earth. Examples of debris include non-operational satellites, rocket bodies, and fragments generated from explosions, collisions, or faulty payload assembly.

Loading next visibility...
Identifier
41229, 2000-055EJ
Orbit
SSO
Country
Flag of USUS
Related business
Manufacturer
Unknown
Mission
Spacecraft
Bus & Motor
Unknown
Mass
Unknown
Launch date (UTC)
2000-09-21 (25 years ago)
Launch vehicle
Unknown
Launch site
Air Force Western Test Range (AFWTR)
Object type
Payload
Rocket body
Debris
Shape & HBR
Unknown shape, 0.1 m
Radar Cross Section
Small (<0.1 m²)

Expand to show TLE details & history
Last TLE update: 15 hours ago

TLE from 15 hours ago
0 NOAA 16 DEB
1 41229U 00055EJ  26036.60434503  .00009335  00000-0  40719-2 0  9993
2 41229  98.9193  92.1639 0060911 258.7822 100.6505 14.23126438520930
Epoch: 2026-02-05T14:30Z
TLE epoch observation values (Epoch: 2026-02-05T14:30:15.410Z)
Latitude
-0.00002°
Longitude
98.84551°
Altitude
826.067 km
Speed
7.436 km/s
True Right ascension
06h 08m 39s
True Declination
0° 00' 00"
Sunlit
Object was in full shadow at epoch
Visualization orbit readout
Latitude
Unknown
Longitude
Unknown
Altitude
Unknown
Speed
Unknown
Apparent Right ascension
Unknown
Apparent Declination
Unknown
Sunlit
N/A
Visualization observer readout
Local Sidereal Time
07:57:17
Azimuth
Unknown
Elevation
Unknown
Doppler factor
Unknown
Orbital elements
Apogee altitude
855.759 km
Perigee altitude
768.168 km
Semi-major axis
7,190.1 km
Eccentricity
0.00609
Inclination
98.9193°
RAAN
92.1639°
Arg. of periapsis
258.7822°
True anomaly
101.33548°
Mean anomaly
100.6505°
Eccentric anomaly
100.99309°
Mean motion
3.55992 °/min
Orbital period
101.13 mins
BSTAR
0.0040719
Loading maneuver chart data...
Computing Atmospheric mass density...
Loading historical data...
Loading historical data...
Loading historical data...
Loading historical data...
Loading historical data...
Loading historical data...
Loading historical data...

Documentation

Showing up to 5 results
|